Temperature
21 20 20 20 19 19 21 22 23 23 22 22 22 22 21 20 20 20 20 20 20 20 20 19 19 19 19 19 19 19 19 19 19 19 19 19 19 19 19 19 19 19 19 18 18 18 18 18 18
21 20 20 20 19 20 21 22 22 23 23 23 22 22 21 20 20 20 20 20 20 20 20 20 19 19 19 19 19 19 19 19 19 19 19 19 19 19 19 19 19 19 18 18 18 18 18 18 18
21 21 20 19 20 21 22 22 22 23 23 23 22 21 21 20 20 21 20 20 20 20 20 20 19 19 19 19 19 19 19 19 19 19 19 19 19 19 19 19 19 19 18 18 18 18 18 18 18
21 21 21 20 21 22 22 22 23 23 23 23 22 21 21 20 21 21 20 20 20 20 20 19 19 19 19 19 19 19 19 19 19 19 19 19 19 19 19 19 18 18 18 18 18 18 18 18 18
22 21 20 20 21 22 23 23 23 22 22 22 21 20 20 20 21 21 21 20 20 20 20 19 19 19 19 19 19 19 19 19 19 19 19 19 19 19 19 19 19 19 18 18 18 18 18 18 18
22 20 20 21 22 23 23 23 23 22 22 22 21 20 20 20 21 21 20 20 20 20 19 19 19 19 19 19 19 19 19 19 19 19 19 19 19 19 19 19 19 19 19 18 18 18 18 18 18
21 19 20 21 21 23 24 24 23 22 22 22 22 20 20 20 20 20 20 20 19 19 19 19 19 19 19 19 19 19 19 19 19 19 19 19 19 19 19 19 19 19 19 18 18 18 18 18 18
22 20 21 21 22 23 24 24 23 23 22 22 22 20 20 20 20 20 20 20 19 19 19 19 19 19 19 19 19 19 19 19 19 19 19 19 18 18 18 19 19 18 18 18 18 18 18 18 18
22 20 21 22 22 23 24 23 23 23 22 22 21 21 21 20 20 20 20 19 19 19 19 19 19 19 19 19 19 19 19 19 19 19 19 19 18 18 18 18 18 18 18 18 18 18 18 18 18
22 20 22 23 23 23 24 23 23 23 22 21 21 21 20 20 20 20 20 19 19 19 19 19 19 19 19 19 19 19 19 19 19 19 19 19 18 18 18 18 18 18 18 18 18 18 18 18 18
22 22 22 23 24 24 23 23 23 22 21 21 21 20 20 20 20 20 19 19 19 19 19 19 19 19 19 19 19 19 19 19 18 18 18 18 18 18 18 18 18 18 18 18 18 18 18 18 18
22 22 23 23 24 24 23 23 22 22 22 22 22 21 20 20 20 20 20 19 19 19 19 19 19 19 19 19 19 18 18 18 18 18 18 18 18 18 18 18 18 18 18 18 18 18 18 18 18
23 23 24 24 24 23 23 22 22 22 22 22 21 21 20 20 20 20 20 19 19 19 19 19 19 19 19 19 19 19 18 18 18 18 18 18 18 18 18 18 18 18 18 18 18 18 18 18 18
23 23 23 24 24 24 23 22 22 21 22 21 21 21 20 20 20 20 20 19 19 19 19 19 19 19 19 19 19 19 19 18 18 18 18 18 18 18 18 18 18 18 18 18 18 18 18 18 18
24 23 23 24 24 24 23 22 22 22 22 21 21 21 20 20 20 20 20 20 19 19 19 19 19 19 19 19 19 18 18 18 18 18 18 18 18 18 18 18 18 18 18 18 18 18 18 18 18
23 23 23 24 24 24 23 22 22 22 22 21 21 20 20 20 20 20 20 20 20 20 19 19 19 19 19 19 18 18 18 18 18 18 18 18 18 18 18 18 18 18 18 18 18 18 18 17 17
22 22 23 24 24 24 23 22 22 22 22 21 21 20 20 20 21 20 20 20 20 20 19 19 19 19 19 18 18 18 18 18 18 18 18 18 18 18 18 18 18 18 18 18 18 18 18 17 17
23 23 23 23 23 23 22 22 22 22 22 21 21 21 20 21 21 21 21 20 20 20 20 19 19 19 19 19 18 18 18 18 18 18 18 18 18 18 18 18 18 18 18 18 18 18 17 17 17
24 24 23 23 23 23 22 22 21 21 21 21 21 21 21 21 21 21 21 20 20 20 20 20 19 19 19 19 19 19 19 18 18 18 18 18 18 18 18 18 18 18 18 18 18 18 17 17 17
24 24 23 23 23 23 22 22 22 21 21 21 21 21 21 21 21 21 21 21 20 20 20 20 19 19 19 19 19 19 19 18 18 18 18 18 18 18 18 18 18 18 18 18 18 18 17 17 17
24 24 23 23 23 22 22 22 21 21 22 22 21 21 21 21 21 21 21 21 21 20 20 20 20 19 19 19 19 19 19 19 19 18 18 18 18 18 18 18 18 18 18 18 18 18 18 17 17
24 24 24 23 22 21 22 21 21 20 20 21 21 21 21 21 21 21 21 21 21 21 20 20 20 20 19 19 19 19 19 19 19 19 18 18 18 18 18 18 18 18 18 18 18 18 18 17 17
24 24 23 23 21 21 21 21 20 20 20 20 21 21 22 21 21 22 22 22 21 21 21 20 20 20 19 19 19 19 19 19 19 19 19 18 18 18 18 18 18 18 18 18 17 17 17 17 17
24 23 22 20 20 21 21 21 21 19 20 21 21 22 22 22 22 22 22 22 21 21 21 20 20 20 20 19 19 19 19 19 19 19 19 18 18 18 18 18 18 18 18 18 17 17 17 17 17
23 22 21 22 20 20 20 20 20 21 21 21 21 21 22 22 22 22 22 21 21 21 21 21 20 20 20 19 19 19 19 19 19 19 19 18 18 18 18 18 18 18 18 17 17 17 17 17 17
23 22 21 22 21 20 21 20 21 21 21 22 22 22 22 22 22 22 22 22 22 21 21 21 20 20 20 20 19 19 19 19 19 18 18 18 18 18 18 18 18 18 18 17 17 17 17 17 17
23 21 21 19 20 20 20 21 21 21 21 21 21 21 21 21 22 22 22 22 22 22 21 21 21 20 20 20 19 19 19 19 19 18 18 18 18 18 18 18 18 18 17 17 17 17 17 17 17
22 20 19 19 20 21 21 21 21 21 21 20 20 20 21 21 21 22 22 22 22 21 21 21 21 20 20 20 20 19 19 19 19 18 18 18 18 18 18 18 18 17 17 17 17 17 17 17 17
22 21 18 17 19 20 21 21 21 20 20 20 19 20 21 21 21 22 22 21 21 21 21 21 21 20 20 20 19 19 19 19 19 18 18 18 18 18 18 18 17 17 17 17 17 17 17 17 17
23 21 19 21 19 18 19 20 22 20 20 20 20 20 21 21 21 21 21 21 21 21 21 21 21 20 20 20 19 19 19 19 18 18 18 18 18 18 17 17 17 17 17 17 17 17 17 16 16
Wind_Speed
8 7 3 1 3 4 3 3 1 2 3 3 5 6 6 4 2 2 1 3 5 4 5 7 7 8 8 8 8 9 9 9 9 9 9 9 9 8 8 8 8 9 9 10 11 12 12 11 11
6 4 1 2 4 4 3 3 3 3 3 4 6 6 6 4 2 3 1 2 5 5 6 6 7 8 8 7 8 8 8 8 8 8 8 8 8 7 7 7 8 8 9 10 10 11 11 10 11
5 3 2 3 3 2 1 1 3 4 4 3 4 5 4 2 2 1 1 5 5 5 5 6 8 8 8 7 7 7 8 7 7 7 7 7 7 7 6 6 7 8 8 9 9 10 10 10 10
3 1 3 4 3 1 2 2 3 4 4 5 4 5 4 3 1 3 5 6 6 4 4 6 7 7 7 6 6 7 7 7 7 7 7 6 6 6 6 6 7 7 7 8 8 9 9 10 10
2 3 5 4 3 1 1 2 2 4 3 4 4 5 3 4 5 7 7 6 5 3 3 5 6 7 7 6 6 6 6 6 7 7 6 6 6 6 6 6 6 6 6 7 7 8 8 8 9
3 4 5 3 3 2 1 2 4 5 4 4 4 4 3 3 5 6 6 5 5 4 3 3 5 6 6 6 6 6 6 6 6 6 6 6 5 5 5 5 5 5 6 6 6 6 7 7 8
3 4 3 1 1 2 1 2 4 4 4 3 3 4 2 2 4 6 6 5 5 4 3 2 2 4 5 5 5 5 5 5 5 5 6 6 5 5 5 4 4 5 5 5 5 5 5 5 6
3 4 3 1 1 1 0 2 3 5 4 3 3 5 2 2 6 8 7 6 5 4 3 2 2 3 3 3 4 3 4 4 4 5 5 5 4 4 3 3 3 4 4 4 4 4 4 4 6
3 4 1 1 2 1 1 3 3 4 6 4 4 3 5 9 9 9 7 5 4 4 3 2 2 2 2 2 3 2 3 3 3 4 4 3 2 2 1 2 3 3 4 4 3 3 3 4 5
3 3 2 3 3 2 1 3 4 5 6 4 6 7 9 10 9 8 6 5 3 2 1 2 1 1 1 1 2 2 2 2 3 3 2 2 2 2 2 1 2 2 2 2 2 2 3 3 3
3 3 1 0 2 3 2 2 3 7 3 3 7 9 9 9 7 7 5 4 2 1 1 1 1 1 1 1 2 2 2 2 3 3 2 2 2 2 1 1 1 1 1 1 1 1 1 2 2
2 0 1 0 2 3 3 2 4 3 2 6 9 10 9 8 7 6 5 3 2 2 1 1 1 1 1 1 1 1 1 1 2 1 1 1 1 1 1 1 1 1 1 1 0 0 1 2 2
2 1 2 2 4 3 6 5 4 3 7 9 10 9 8 7 5 4 3 3 2 2 1 1 2 1 1 2 1 2 1 1 1 1 1 2 1 0 1 1 1 1 0 0 0 1 1 2 2
1 2 2 3 4 3 6 4 4 3 8 9 9 7 7 6 5 4 3 3 2 1 0 1 2 1 2 2 1 1 1 1 1 1 2 2 2 1 0 1 1 1 0 0 1 1 1 1 1
3 4 5 3 3 2 6 5 2 5 8 8 7 6 6 5 5 5 4 4 3 2 1 1 2 1 1 1 1 1 1 1 1 2 2 2 3 2 2 1 0 0 0 1 1 1 1 1 2
3 4 3 3 2 3 5 1 2 6 8 6 5 5 4 3 4 4 4 3 3 2 1 1 1 2 1 0 0 1 1 1 1 1 2 2 3 3 2 1 1 1 1 1 1 1 1 1 2
4 2 1 2 1 2 3 2 3 5 7 6 5 5 5 4 4 4 4 4 3 2 2 1 0 1 1 0 0 0 0 0 1 1 1 1 2 2 2 1 1 1 1 1 1 1 1 1 1
3 1 1 2 1 3 3 2 3 5 6 6 5 5 5 5 6 4 4 4 3 2 2 2 1 1 1 1 1 1 1 1 1 1 1 1 2 2 2 1 1 1 2 1 1 2 1 1 1
4 3 1 2 1 2 2 1 3 5 5 6 5 5 6 6 4 3 4 3 3 2 2 2 1 1 1 1 1 0 1 1 1 1 2 2 2 2 2 2 1 2 2 2 2 2 2 1 1
4 3 1 1 2 3 2 1 1 4 6 6 7 7 6 5 3 3 3 3 4 3 3 2 2 2 2 1 1 1 1 1 1 1 1 1 2 2 3 2 2 2 2 2 2 2 1 1 1
3 5 4 3 2 5 3 3 2 3 2 3 5 6 6 7 6 5 5 4 4 4 4 3 3 2 2 1 1 1 1 1 1 2 1 1 1 1 2 2 2 2 2 2 2 3 3 1 1
3 4 6 6 4 1 2 2 5 3 3 4 6 6 6 6 6 5 5 5 5 5 4 3 3 2 2 2 2 2 1 2 2 2 2 2 1 1 1 2 2 2 2 2 2 2 2 3 2
4 4 5 5 5 3 2 1 6 1 4 7 7 7 6 6 6 6 6 6 6 5 4 4 3 2 2 2 3 2 2 2 2 2 2 2 1 1 1 2 2 2 2 2 2 2 2 2 2
7 8 8 6 5 2 2 2 5 3 6 5 6 6 6 6 6 5 5 4 3 3 3 3 3 2 2 2 2 2 2 2 1 2 2 2 1 1 1 1 2 2 2 2 2 2 3 2 2
6 7 4 4 4 4 2 2 6 5 4 5 5 6 6 5 5 4 4 3 3 3 3 3 3 3 2 2 2 2 3 2 2 3 3 2 1 2 2 2 2 2 2 2 2 2 2 2 3
5 8 7 5 4 4 2 3 6 5 2 1 1 2 3 3 4 4 4 4 4 4 4 4 4 3 3 3 3 2 3 2 2 3 2 2 2 3 2 2 2 2 2 3 3 2 2 2 2
6 4 6 7 3 1 4 5 7 3 4 3 2 3 2 3 3 3 3 3 3 4 4 4 4 3 3 4 3 3 3 3 3 3 2 2 2 2 3 2 2 2 2 3 3 2 2 2 2
5 8 6 6 5 1 4 3 4 4 2 1 1 2 2 2 2 3 3 3 3 3 3 3 3 4 3 3 3 3 3 3 3 2 3 2 2 2 2 2 2 2 2 3 3 2 2 2 2
4 5 6 5 5 6 2 5 4 6 5 4 3 3 3 4 3 3 2 2 3 2 2 1 1 1 1 1 2 1 2 2 2 2 3 3 3 2 2 2 2 2 3 3 3 3 3 3 2
4 5 6 5 3 4 4 6 4 3 3 4 3 3 2 2 2 2 2 2 2 2 1 1 2 2 2 1 1 1 2 1 2 2 3 2 2 2 2 2 2 3 3 3 4 4 4 4 4
Wind_Direction
164 154 156 139 54 46 22 351 42 51 57 50 70 85 94 82 97 125 316 117 123 126 134 143 139 132 129 126 123 124 125 125 123 121 125 127 128 126 124 123 123 126 128 127 130 131 134 134 136
158 166 184 54 67 54 351 342 56 54 121 114 73 70 69 60 57 89 74 125 120 127 133 143 140 137 134 128 121 123 124 123 124 125 126 126 127 126 124 123 128 132 132 131 132 134 135 135 136
171 191 86 61 74 130 146 7 107 90 86 73 71 57 71 70 75 115 148 125 106 114 130 144 142 138 133 127 119 120 122 124 127 125 126 128 129 125 125 128 130 134 136 136 137 138 136 135 136
164 87 61 64 52 297 171 174 130 106 52 43 84 65 51 25 119 135 123 115 109 106 127 144 141 137 132 127 123 121 123 129 127 124 128 132 130 125 124 128 128 135 138 140 142 142 139 138 137
82 69 52 41 10 344 115 136 92 81 65 50 75 82 36 6 87 112 115 117 116 103 115 132 134 136 132 127 125 121 125 127 122 121 124 124 123 124 122 126 129 135 138 143 146 146 142 141 139
59 62 62 32 354 358 63 87 94 82 88 78 74 79 33 42 94 112 107 104 117 114 106 116 129 128 122 118 117 117 123 123 120 118 115 114 112 114 117 115 119 127 140 146 147 147 146 144 143
88 78 86 89 352 2 82 71 102 106 87 76 94 87 52 60 97 108 95 87 89 93 90 88 113 115 118 120 113 108 111 114 117 119 115 111 111 112 112 113 120 124 133 144 147 148 149 151 151
124 96 61 24 83 313 111 72 89 95 88 82 83 112 147 141 112 99 87 77 74 72 70 70 59 68 89 110 112 109 113 109 107 109 108 107 110 110 103 113 135 137 137 143 147 146 148 152 154
106 73 76 208 168 265 125 93 77 69 84 57 55 94 126 124 113 101 89 72 69 68 46 45 43 53 65 97 109 121 127 117 104 102 101 95 85 91 90 100 125 132 142 146 147 138 134 142 149
87 107 221 213 173 165 105 101 120 94 77 65 70 81 109 116 118 118 116 113 102 79 43 44 48 63 77 93 77 60 85 91 89 81 88 87 72 78 66 56 98 100 117 129 132 128 125 121 124
119 167 213 47 142 135 103 63 78 116 105 152 142 134 128 123 124 126 126 127 136 133 96 62 63 74 91 81 70 57 69 77 81 78 80 87 73 58 48 24 355 359 43 32 63 84 99 108 115
121 251 168 138 83 90 106 93 80 100 153 136 136 135 132 135 142 147 145 143 128 104 106 92 93 93 100 104 96 94 84 84 81 86 100 112 60 34 11 21 10 16 352 1 25 126 94 104 121
82 356 30 86 86 92 90 85 98 91 109 118 125 128 137 142 147 149 147 144 124 107 80 81 90 100 120 103 108 119 131 140 145 170 200 184 139 41 2 354 7 14 15 79 71 82 88 93 109
112 82 44 43 68 78 98 77 88 129 127 126 134 141 149 155 159 156 154 155 145 153 158 80 80 77 104 106 118 145 160 179 183 220 228 197 188 183 203 16 12 350 274 179 140 114 85 76 94
83 65 36 32 56 93 95 52 97 151 138 139 149 154 156 164 168 178 181 177 176 177 165 142 146 108 111 130 186 185 188 180 195 235 237 208 197 188 182 152 115 297 180 132 106 73 82 96 94
55 52 31 322 58 93 99 106 183 153 147 155 166 169 170 183 188 196 186 179 176 160 150 163 166 127 136 146 196 185 188 184 215 240 244 216 200 195 181 159 203 221 153 129 130 112 92 85 84
41 56 320 310 43 90 107 176 196 163 157 171 182 187 187 195 202 205 195 187 181 174 166 164 154 130 145 111 85 83 168 202 258 274 260 238 212 193 172 181 217 186 132 140 157 114 119 116 95
218 197 254 274 321 93 117 186 170 174 171 182 192 198 198 207 216 203 194 186 176 170 167 168 161 132 107 87 55 21 8 336 282 247 252 240 219 190 171 171 204 161 140 137 137 122 115 137 135
162 151 178 256 237 113 149 186 188 180 182 190 195 202 208 218 220 191 189 180 167 169 172 178 170 163 119 105 118 134 290 288 287 263 253 240 225 192 180 187 183 162 161 174 158 139 123 119 112
154 143 165 44 53 91 95 324 244 194 202 202 200 206 212 215 212 202 195 190 195 198 199 193 200 191 178 169 164 182 202 256 263 285 272 242 233 209 193 185 188 171 165 157 157 145 137 156 121
185 182 178 155 62 52 67 354 287 253 224 210 212 210 207 207 210 209 205 207 206 210 211 213 216 210 206 181 114 66 36 2 353 330 317 283 246 223 187 169 181 184 178 191 197 177 164 173 125
218 206 161 138 105 14 68 306 286 255 253 236 227 216 212 215 211 207 207 211 211 212 198 201 214 212 209 175 159 176 195 245 265 279 290 295 275 217 180 157 185 184 181 194 204 176 172 160 170
174 111 108 103 100 52 26 128 293 281 249 249 234 223 217 213 209 208 210 212 211 201 191 194 196 208 206 185 187 194 227 252 293 322 323 316 319 273 197 172 183 187 182 189 185 165 170 166 168
115 76 62 54 66 10 275 163 289 249 236 246 232 226 220 214 211 210 207 202 207 195 189 181 183 214 203 190 194 200 225 255 299 308 304 301 301 293 266 206 193 192 180 181 179 167 172 176 165
98 95 50 13 12 264 277 185 258 266 247 224 229 223 216 208 201 196 191 198 209 200 193 182 185 218 213 200 209 212 221 225 239 260 265 269 278 276 262 236 212 201 194 188 177 168 178 176 177
158 139 154 186 216 273 317 234 264 296 280 202 181 191 187 188 184 187 192 193 198 202 194 187 192 210 212 213 223 223 225 228 247 253 255 245 249 259 254 228 216 204 194 191 179 178 187 178 184
134 151 154 129 129 46 291 294 310 356 29 42 69 104 161 186 176 178 173 173 177 189 194 191 194 210 218 224 232 233 231 231 247 254 255 251 252 253 240 221 212 205 194 191 179 181 184 174 180
120 137 102 115 138 235 294 282 262 282 279 283 160 178 195 177 163 160 163 172 178 186 185 176 187 205 218 220 232 240 238 235 243 250 248 247 254 256 242 233 220 212 202 195 183 181 175 166 177
90 86 99 108 139 153 228 272 239 227 221 207 213 207 190 184 181 175 169 165 155 146 143 151 197 191 213 230 236 253 270 265 251 253 258 248 249 243 231 221 220 220 217 199 182 191 189 185 192
139 148 144 148 189 165 172 262 302 225 214 192 196 203 192 182 167 143 134 117 118 131 148 184 225 222 231 222 227 264 283 278 268 270 270 256 254 249 238 216 209 224 221 202 193 203 201 198 207
Height
1493 1494 1494 1496 1498 1506 1508 1502 1496 1496 1496 1496 1496 1496 1498 1502 1505 1510 1505 1503 1503 1504 1504 1504 1505 1506 1506 1507 1507 1507 1508 1508 1509 1509 1510 1510 1511 1511 1511 1512 1512 1513 1514 1515 1517 1519 1520 1522 1523
1494 1494 1497 1497 1505 1517 1512 1501 1498 1497 1497 1497 1498 1499 1500 1502 1503 1504 1504 1505 1505 1505 1506 1506 1507 1508 1508 1509 1509 1509 1510 1510 1511 1511 1512 1512 1512 1512 1512 1513 1513 1514 1516 1517 1519 1520 1522 1523 1524
1495 1496 1498 1500 1508 1515 1510 1501 1498 1498 1498 1498 1500 1501 1503 1505 1505 1506 1506 1506 1507 1507 1508 1508 1509 1509 1510 1511 1511 1511 1512 1512 1512 1513 1513 1513 1513 1513 1514 1514 1515 1516 1517 1519 1520 1521 1523 1524 1525
1496 1498 1499 1505 1510 1506 1503 1500 1498 1499 1499 1500 1501 1504 1505 1507 1507 1508 1508 1508 1508 1509 1510 1510 1511 1511 1512 1512 1513 1513 1513 1514 1514 1514 1514 1514 1515 1515 1515 1516 1516 1517 1519 1520 1521 1523 1524 1525 1526
1497 1498 1504 1511 1509 1503 1500 1499 1499 1500 1501 1502 1503 1505 1507 1509 1509 1509 1509 1510 1510 1511 1512 1512 1513 1513 1514 1515 1515 1515 1515 1515 1515 1516 1516 1516 1516 1516 1517 1517 1518 1519 1520 1521 1522 1524 1525 1526 1527
1499 1500 1513 1518 1511 1503 1501 1500 1501 1502 1503 1504 1505 1507 1510 1510 1510 1511 1511 1512 1512 1513 1514 1514 1515 1515 1516 1516 1517 1517 1517 1517 1517 1517 1517 1518 1518 1518 1518 1519 1519 1520 1521 1522 1523 1525 1525 1526 1527
1501 1505 1513 1514 1512 1506 1502 1501 1502 1503 1504 1506 1506 1509 1511 1511 1512 1512 1513 1513 1514 1515 1515 1516 1517 1517 1518 1518 1518 1518 1519 1519 1519 1519 1519 1519 1519 1520 1520 1520 1521 1521 1522 1523 1524 1525 1526 1527 1528
1501 1506 1512 1513 1512 1508 1503 1503 1504 1505 1506 1508 1508 1510 1512 1513 1513 1514 1515 1515 1516 1516 1517 1518 1518 1518 1519 1519 1519 1519 1520 1520 1520 1520 1520 1521 1521 1521 1521 1522 1522 1523 1523 1524 1525 1526 1527 1527 1528
1502 1510 1516 1511 1509 1506 1503 1504 1506 1507 1507 1509 1509 1510 1512 1513 1514 1515 1516 1517 1517 1518 1518 1519 1519 1520 1520 1520 1521 1521 1521 1521 1521 1522 1522 1522 1522 1522 1522 1523 1523 1524 1524 1525 1526 1527 1527 1528 1529
1503 1513 1510 1504 1503 1504 1504 1505 1506 1508 1509 1511 1511 1512 1514 1515 1516 1517 1517 1518 1519 1519 1520 1520 1521 1521 1521 1521 1522 1522 1522 1522 1523 1523 1523 1523 1524 1523 1523 1524 1525 1525 1526 1526 1527 1528 1529 1529 1530
1503 1507 1504 1503 1503 1504 1505 1506 1507 1509 1512 1512 1512 1513 1515 1516 1518 1518 1519 1520 1520 1521 1521 1521 1522 1522 1522 1522 1523 1523 1524 1524 1524 1524 1524 1525 1525 1525 1525 1525 1526 1526 1527 1528 1528 1529 1529 1530 1531
1504 1503 1503 1503 1504 1504 1506 1508 1509 1510 1512 1512 1513 1515 1517 1518 1519 1520 1521 1521 1522 1522 1522 1523 1523 1523 1523 1524 1524 1524 1525 1525 1525 1525 1525 1526 1526 1526 1526 1526 1527 1527 1528 1528 1529 1530 1530 1531 1532
1504 1504 1503 1504 1505 1506 1507 1509 1511 1513 1513 1514 1516 1518 1519 1520 1521 1522 1523 1523 1523 1523 1524 1524 1524 1524 1524 1525 1525 1525 1525 1526 1526 1526 1526 1527 1527 1527 1527 1527 1528 1528 1529 1529 1530 1530 1531 1532 1532
1505 1505 1505 1505 1506 1507 1508 1511 1513 1515 1515 1516 1518 1520 1521 1522 1523 1523 1524 1524 1524 1525 1525 1525 1525 1525 1526 1526 1526 1526 1526 1527 1527 1527 1527 1528 1528 1528 1528 1528 1528 1529 1529 1529 1530 1530 1531 1532 1532
1506 1507 1508 1507 1507 1509 1510 1515 1515 1515 1517 1518 1520 1521 1522 1523 1524 1524 1525 1525 1525 1526 1526 1526 1526 1526 1526 1527 1527 1527 1527 1527 1527 1528 1528 1528 1528 1528 1528 1528 1528 1529 1529 1530 1530 1531 1531 1532 1532
1508 1513 1518 1511 1509 1510 1515 1523 1517 1517 1518 1520 1521 1522 1523 1524 1524 1525 1526 1526 1526 1526 1526 1527 1527 1527 1527 1527 1527 1527 1528 1528 1528 1528 1528 1528 1528 1528 1528 1528 1529 1529 1529 1530 1530 1530 1531 1531 1532
1516 1524 1522 1515 1510 1511 1515 1521 1517 1517 1519 1520 1521 1522 1523 1524 1524 1525 1526 1526 1526 1526 1527 1527 1527 1527 1527 1528 1528 1528 1528 1528 1528 1528 1528 1528 1528 1529 1529 1529 1529 1529 1529 1529 1530 1530 1531 1531 1532
1522 1523 1522 1519 1513 1513 1517 1518 1517 1518 1519 1520 1521 1522 1523 1523 1523 1524 1525 1526 1526 1527 1527 1527 1528 1528 1528 1528 1528 1528 1528 1528 1528 1528 1528 1528 1528 1529 1529 1529 1529 1529 1529 1529 1530 1530 1531 1531 1532
1512 1518 1521 1518 1512 1515 1518 1518 1517 1518 1519 1520 1520 1521 1521 1522 1524 1525 1525 1526 1526 1526 1526 1527 1528 1528 1528 1528 1528 1528 1528 1528 1528 1528 1528 1528 1528 1529 1528 1528 1529 1529 1529 1529 1530 1530 1531 1531 1532
1511 1518 1519 1516 1512 1515 1520 1520 1517 1517 1518 1518 1519 1520 1520 1521 1523 1523 1524 1525 1526 1526 1526 1527 1528 1528 1528 1528 1529 1529 1529 1529 1529 1528 1528 1528 1528 1528 1528 1528 1529 1529 1529 1529 1530 1530 1531 1531 1532
1512 1516 1517 1518 1516 1517 1521 1525 1520 1517 1517 1517 1518 1519 1519 1520 1521 1522 1523 1524 1525 1526 1526 1527 1528 1528 1529 1529 1529 1529 1529 1529 1529 1528 1528 1528 1528 1528 1527 1527 1528 1528 1528 1529 1529 1530 1530 1531 1531
1515 1507 1510 1515 1524 1533 1528 1542 1525 1519 1517 1516 1516 1517 1517 1518 1520 1521 1522 1523 1524 1525 1526 1527 1527 1528 1529 1529 1529 1529 1528 1528 1528 1528 1528 1527 1527 1527 1527 1527 1527 1527 1527 1528 1529 1529 1529 1530 1530
1507 1504 1510 1517 1526 1534 1533 1540 1532 1521 1520 1515 1513 1514 1515 1517 1518 1519 1521 1522 1523 1524 1525 1526 1527 1527 1528 1528 1528 1528 1528 1528 1528 1528 1527 1527 1526 1526 1526 1526 1526 1526 1526 1527 1528 1528 1529 1529 1530
1503 1511 1518 1526 1534 1546 1537 1541 1537 1525 1517 1512 1510 1511 1513 1515 1516 1518 1520 1521 1522 1523 1524 1525 1526 1526 1527 1527 1528 1528 1528 1527 1527 1527 1526 1526 1525 1525 1525 1525 1525 1525 1525 1526 1526 1527 1527 1528 1529
1506 1524 1543 1546 1554 1550 1536 1538 1533 1514 1509 1508 1508 1509 1511 1513 1514 1516 1518 1519 1521 1522 1523 1524 1525 1525 1526 1526 1527 1527 1527 1527 1526 1526 1525 1525 1524 1524 1524 1524 1524 1524 1524 1525 1525 1526 1526 1527 1527
1509 1518 1542 1552 1555 1549 1537 1538 1523 1509 1506 1506 1507 1508 1509 1511 1513 1515 1517 1518 1519 1521 1522 1523 1524 1524 1525 1525 1526 1526 1526 1526 1525 1525 1524 1524 1524 1523 1523 1523 1523 1523 1524 1524 1524 1525 1525 1525 1526
1510 1518 1519 1537 1544 1550 1543 1532 1517 1508 1507 1507 1507 1508 1509 1510 1512 1514 1515 1517 1518 1520 1521 1522 1523 1524 1524 1525 1525 1525 1525 1524 1524 1523 1523 1522 1522 1522 1522 1521 1522 1522 1522 1522 1522 1523 1523 1524 1524
1503 1512 1526 1538 1551 1555 1544 1537 1530 1515 1511 1509 1509 1509 1509 1510 1512 1513 1515 1516 1517 1519 1520 1521 1522 1523 1523 1523 1523 1523 1523 1523 1523 1522 1522 1521 1521 1521 1520 1520 1520 1520 1520 1520 1520 1521 1521 1522 1522
1509 1516 1526 1537 1539 1551 1553 1541 1514 1512 1509 1509 1509 1509 1509 1510 1511 1512 1514 1515 1517 1518 1519 1520 1521 1522 1522 1522 1522 1522 1522 1521 1521 1521 1520 1520 1519 1519 1518 1518 1518 1518 1518 1518 1518 1519 1519 1519 1520
1502 1510 1520 1531 1540 1543 1546 1538 1508 1507 1506 1507 1508 1509 1509 1510 1511 1512 1514 1515 1516 1517 1518 1519 1520 1520 1521 1521 1521 1521 1520 1520 1519 1519 1518 1518 1517 1517 1517 1516 1516 1516 1516 1516 1516 1517 1517 1517 1517